Weather in Bogatoe

Russia / Republic of Crimea     45°01′38″N   34°46′03″E
temp.,
°C
wind,
m/s
gust,
m/s
humid.,
%
clouds,
%
prec.,
mm/h
press.,
hPa
HPBL,
m
21 january, fri
fri2100:00−1sw348968 0.0 101460
03:00+1sw5118126 0.0 1013430
06:00+1sw598169 0.0 1012254
09:00+2wsw41082100 0.0 1013416
12:00+3wsw388296 0.1 1014796
15:000wnw2699100 2.0 1014308
18:00−1wnw3790100 0.2 1014578
21:00−2w41073100 0.3 1015571
22 january, sat
sat2200:00−2wnw51173100 0.0 1015602
03:00−3w2771100 0.0 1015252
06:00−3sw246757 0.0 101598
09:00−4w11825 0.0 101656
12:00−1nw1267100 0.1 1016608
15:00−1nw2270100 0.2 1014659
18:00−2n1180100 0.1 101522
21:00−2nnw2577100 0.1 1015433
23 january, sun
sun2300:00−3nnw3580100 0.2 1016533
03:00−3nnw2577100 0.4 1015430
06:00−3nw3682100 0.0 1015443
09:00−4nnw3688100 0.3 1016452
12:00−3nnw4892100 1.6 1016704
15:00−3nnw51094100 3.7 1015690
18:00−3nnw4998100 3.6 1017648
21:00−3nnw3897100 6.9 1018641
24 january, mon
mon2400:00−4nnw4996100 1.4 1019549
03:00−5nw4795100 0.9 1020550
06:00−5nw4994100 0.2 1021574
09:00−6wnw4893100 0.3 1023478
12:00−5wnw5886100 0.1 1023614
15:00−4wnw5882100 0.1 1023738
18:00−5wnw51087100 0.0 1024558
21:00−7w3693100 0.1 1026204
25 january, tue
tue2500:00−8w3690100 0.0 1026168
03:00−8w3792100 0.0 1026172
06:00−8w239370 0.0 102645
09:00−7wsw239149 0.0 102757
12:00−2w357419 0.0 1026645
15:00−1w2474100 0.0 1025854
18:00−6wsw2293100 0.0 102616
21:00−7sw229088 0.0 102615